Location: The Saddle
(36.8333°N, 80.3417°W)
Time: 09:13:15
(UTC-04:00)

A-11 Canister half - Pass Details

Date: 27 May 2024
Orbit: 1515 x 1685 km, 47.2° (Epoch: 17 June)

Event Time Altitude Azimuth Distance (km) Brightness Sun altitude
Exits shadow 01:14:27 61° 141° (SE) 1,759 8.9 -31.8°
Maximum altitude 01:14:33 61° 138° (SE) 1,758 8.9 -31.8°
Drops below altitude 10° 01:23:46 10° 61° (ENE) 3,725 11.3 -31.8°
Sets 01:26:49 0° 58° (ENE) 4,693 12.0 -31.8°
